Flag for U.S.A. Weather past 2 weeks in Furnace Creek (Death Valley), California, U.S.A.

Now
65 °F

Clear.


Feels Like: 65 °F
Forecast: 71 / 102 °F
Wind: 3 mph from Northeast

Location: Desert Rock Airport

Current Time: Sep 23, 2014 at 3:44:45 AM

Latest Report: Sep 23, 2014 at 2:52 AM


Visibility: 10 mi

Pressure: 29.92 "Hg

Humidity: 45%

Dew point: 43 °F

Location of Furnace Creek (Death Valley)Location

Historic Weather in Furnace Creek (Death Valley) — Graph

°F

Furnace Creek (Death Valley) temperature yesterday

Maximum temperature yesterday: 90 °F (at 3:52 PM)
Minimum temperature yesterday: 65 °F (at 5:52 AM)
Average temperature yesterday: 78 °F

Past Weeks' High & Low Weather Summary

 TemperatureHumidityPressure
High98 °F (Sep 15, 1:52 PM)94% (Sep 9, 4:52 AM)29.98 "Hg (Sep 9, 4:52 AM)
Low60 °F (Sep 10, 5:52 AM)6% (Sep 18, 2:52 PM)29.59 "Hg (Sep 18, 4:52 PM)
Average80 °F31%29.80 "Hg
* Reported Sep 8 2:52 AM — Sep 23 2:52 AM, Furnace Creek (Death Valley), Weather by CustomWeather, © 2014

Note: Actual official high and low records may vary slightly from our data, if they occured in-between our weather recording intervals... More about our weather records

Advertising

Furnace Creek (Death Valley) weather history for previous 24 hours

 ConditionsComfort  
Time TempWeatherWind HumidityBarometerVisibility
2:52 AM
Sep 23
65 °FClear.3 mph45%29.92 "Hg10 mi
1:52 AM67 °FClear.3 mph41%29.92 "Hg10 mi
12:52 AM68 °FClear.3 mph38%29.92 "Hg10 mi
11:52 PM
Sep 22
70 °FClear.3 mph34%29.91 "Hg10 mi
10:52 PM72 °FClear.5 mph33%29.90 "Hg10 mi
9:52 PM74 °FClear.5 mph28%29.90 "Hg10 mi
8:52 PM76 °FClear.6 mph29%29.89 "Hg10 mi
7:52 PM77 °FClear.3 mph26%29.88 "Hg10 mi
6:52 PM83 °FSunny.6 mph19%29.87 "Hg10 mi
5:52 PM88 °FSunny.12 mph16%29.86 "Hg10 mi
4:52 PM90 °FSunny.7 mph15%29.86 "Hg10 mi
3:52 PM90 °FSunny.7 mph15%29.86 "Hg10 mi
2:52 PM89 °FSunny.6 mph18%29.88 "Hg10 mi
1:52 PM88 °FSunny.6 mph19%29.90 "Hg10 mi
12:52 PM86 °FSunny.N/A23%29.93 "Hg10 mi
11:52 AM84 °FSunny.No wind26%29.95 "Hg10 mi
10:52 AM81 °FSunny.No wind33%29.97 "Hg10 mi
9:52 AM79 °FSunny.3 mph35%29.98 "Hg10 mi
8:52 AM75 °FSunny.No wind40%29.98 "Hg10 mi
7:52 AM70 °FSunny.No wind47%29.96 "Hg10 mi
5:52 AM65 °FClear.No wind59%29.94 "Hg10 mi
4:52 AM68 °FClear.9 mph53%29.92 "Hg10 mi
3:52 AM69 °FClear.14 mph51%29.92 "Hg10 mi
Weather by CustomWeather, © 2014

See weather overviewHow to use our weather pages